Weather History for KBJJ - May, 2013

Change the Weather History Date:

Saturday, May 25, 2013

  Actual Average Record
Temperature  
Mean Temperature 45 °F -  
Max Temperature 61 °F 68 °F 88 °F (2012)
Min Temperature 30 °F 47 °F 30 °F (2013)
Degree Days  
Heating Degree Days 20    
Moisture  
Dew Point 33 °F    
Average Humidity 63    
Maximum Humidity 92    
Minimum Humidity 33    
Precipitation  
Precipitation 0.00 in - - ()
Sea Level Pressure  
Sea Level Pressure 30.34 in    
Wind  
Wind Speed 4 mph (North)    
Max Wind Speed 13 mph    
Max Gust Speed 23 mph    
Visibility 9 miles    
Events      
Averages and records for this station are not official NWS values.
T = Trace of Precipitation, MM = Missing Value Source: NWS Daily Summary

Daily Weather History Graph

Daily Weather History Graph

Search for Another Location

Airport or City:

Trip Planner

Search our weather history database for the weather conditions in past years. The results will help you decide how hot, cold, wet, or windy it might be!

Date:

Astronomy

May. 25, 2013 Rise Set
Actual Time 6:01 AM EDT 8:47 PM EDT
Civil Twilight 5:29 AM EDT 9:19 PM EDT
Nautical Twilight 4:49 AM EDT 10:00 PM EDT
Astronomical Twilight 4:03 AM EDT 10:46 PM EDT
Moon 9:34 PM EDT 6:27 AM EDT
Length of Visible Light 15h 50m
Length of Day
14h 45m
Full, 100% of the Moon is Illuminated
May 25
Full
May 31
Last Quarter
Jun 8
New
Jun 16
First Quarter
Jun 23
Full

Hourly Weather History & Observations

Time (EDT) Temp. Windchill Dew Point Humidity Pressure Visibility Wind Dir Wind Speed Gust Speed Precip Events Conditions
12:56 AM 32.0 °F - 30.0 °F 92% 30.35 in 9.0 mi Calm Calm - N/A   Clear
1:56 AM 33.1 °F - 30.9 °F 92% 30.34 in 7.0 mi Calm Calm - N/A   Clear
2:56 AM 35.1 °F - 32.0 °F 89% 30.33 in 9.0 mi Calm Calm - N/A   Clear
3:56 AM 34.0 °F - 32.0 °F 92% 30.34 in 9.0 mi Calm Calm - N/A   Clear
4:56 AM 32.0 °F - 30.0 °F 92% 30.35 in 8.0 mi Calm Calm - N/A   Clear
5:56 AM 30.9 °F 26.2 °F 28.9 °F 92% 30.37 in 7.0 mi NNW 4.6 mph - N/A   Clear
6:56 AM 34.0 °F - 32.0 °F 92% 30.36 in 6.0 mi Calm Calm - N/A   Clear
7:56 AM 42.1 °F 39.2 °F 37.0 °F 82% 30.37 in 10.0 mi North 4.6 mph - N/A   Clear
8:56 AM 46.0 °F 41.0 °F 36.0 °F 68% 30.38 in 10.0 mi North 10.4 mph - N/A   Clear
9:56 AM 48.9 °F - 35.1 °F 59% 30.40 in 10.0 mi NNW 6.9 mph - N/A   Clear
10:56 AM 52.0 °F - 34.0 °F 50% 30.40 in 10.0 mi NNW 11.5 mph 16.1 mph N/A   Clear
11:56 AM 54.0 °F - 34.0 °F 47% 30.38 in 10.0 mi NNW 11.5 mph 18.4 mph N/A   Clear
12:56 PM 57.0 °F - 33.1 °F 40% 30.37 in 10.0 mi Variable 5.8 mph 17.3 mph N/A   Clear
1:56 PM 60.1 °F - 30.9 °F 33% 30.35 in 10.0 mi North 12.7 mph 20.7 mph N/A   Clear
2:56 PM 60.1 °F - 32.0 °F 35% 30.34 in 10.0 mi NNE 10.4 mph 18.4 mph N/A   Clear
3:56 PM 60.1 °F - 30.9 °F 33% 30.33 in 10.0 mi North 11.5 mph 23.0 mph N/A   Clear
4:56 PM 60.1 °F - 30.9 °F 33% 30.32 in 10.0 mi North 12.7 mph 18.4 mph N/A   Clear
5:56 PM 60.1 °F - 32.0 °F 35% 30.31 in 10.0 mi North 10.4 mph - N/A   Clear
6:56 PM 57.0 °F - 34.0 °F 42% 30.30 in 10.0 mi North 10.4 mph - N/A   Clear
7:56 PM 54.0 °F - 33.1 °F 45% 30.30 in 10.0 mi North 10.4 mph - N/A   Clear
8:56 PM 48.0 °F - 35.1 °F 61% 30.30 in 10.0 mi North 4.6 mph - N/A   Clear
9:56 PM 46.0 °F 43.9 °F 35.1 °F 66% 30.30 in 10.0 mi NNE 4.6 mph - N/A   Clear
10:56 PM 43.0 °F 41.3 °F 34.0 °F 71% 30.32 in 10.0 mi NNW 3.5 mph - N/A   Clear
11:56 PM 45.0 °F 43.5 °F 34.0 °F 65% 30.31 in 10.0 mi NNW 3.5 mph - N/A   Clear